MSR9901 KBFI-BIKF

Flight info

Callsign MSR9901
Flight time N/A
Altitude 39000
Route ALPSE DCT YXC DCT 5130N11000W 55N100W/N0469F410 58N090W DCT RONPU DCT BEPEG DCT MUSVA/M080F410 DCT 64N060W 67N050W 6730N04000W 66N030W DCT INDES DCT INGAN INGAN6N/01
Aircraft B38M/M-SDE1FGHILORVWXY/HB1

Departure

Time N/A
Airport King County International Airport - Boeing Field (KBFI)

Arrival

Time 2026-05-03 21:25
Airport Keflavik International Airport (BIKF)
Time Latitude Longitude Altitude Speed Heading
2026-05-03 20:15 65.68507 -41.60209 41160 ft 506 kts 86°
2026-05-03 20:15 65.68780 -41.43014 41144 ft 507 kts 86°
2026-05-03 20:16 65.69033 -41.25858 41150 ft 507 kts 86°
2026-05-03 20:16 65.69267 -41.08561 41148 ft 507 kts 86°
2026-05-03 20:17 65.69481 -40.91485 41162 ft 507 kts 86°
2026-05-03 20:17 65.69676 -40.74325 41165 ft 507 kts 86°
2026-05-03 20:18 65.69850 -40.57325 41168 ft 507 kts 87°
2026-05-03 20:18 65.70007 -40.40073 41184 ft 508 kts 87°
2026-05-03 20:19 65.70144 -40.22895 41168 ft 508 kts 87°
2026-05-03 20:19 65.70261 -40.05747 41178 ft 508 kts 87°
2026-05-03 20:20 65.70359 -39.88570 41171 ft 508 kts 87°
2026-05-03 20:20 65.70438 -39.71445 41157 ft 507 kts 88°
2026-05-03 20:21 65.70498 -39.54274 41179 ft 507 kts 88°
2026-05-03 20:21 65.70539 -39.37186 41190 ft 507 kts 88°
2026-05-03 20:22 65.70558 -39.22855 41152 ft 510 kts 88°
2026-05-03 20:22 65.70562 -39.05619 41171 ft 511 kts 88°
2026-05-03 20:23 65.70548 -38.88339 41175 ft 511 kts 88°
2026-05-03 20:23 65.70515 -38.71061 41158 ft 511 kts 89°
2026-05-03 20:24 65.70461 -38.53851 41169 ft 511 kts 89°
2026-05-03 20:24 65.70388 -38.36505 41169 ft 507 kts 89°
2026-05-03 20:25 65.70297 -38.19373 41155 ft 508 kts 89°
2026-05-03 20:25 65.70186 -38.02322 41153 ft 508 kts 89°
2026-05-03 20:26 65.70057 -37.85334 41135 ft 509 kts 90°
2026-05-03 20:26 65.69907 -37.68134 41110 ft 508 kts 90°
2026-05-03 20:27 65.69739 -37.50977 41132 ft 509 kts 90°
2026-05-03 20:27 65.69551 -37.33846 41109 ft 508 kts 90°
2026-05-03 20:28 65.69342 -37.16529 41105 ft 508 kts 90°
2026-05-03 20:28 65.69115 -36.99353 41102 ft 509 kts 90°
2026-05-03 20:29 65.68869 -36.82151 41096 ft 509 kts 91°
2026-05-03 20:29 65.68603 -36.65000 41094 ft 509 kts 91°
2026-05-03 20:30 65.68319 -36.47848 41078 ft 509 kts 91°
2026-05-03 20:30 65.68013 -36.30621 41076 ft 509 kts 91°
2026-05-03 20:31 65.67691 -36.13469 41098 ft 509 kts 91°
2026-05-03 20:31 65.67347 -35.96309 41074 ft 508 kts 91°
2026-05-03 20:32 65.66985 -35.79172 41054 ft 508 kts 91°
2026-05-03 20:32 65.66604 -35.62037 41067 ft 509 kts 92°
2026-05-03 20:33 65.66204 -35.44916 41071 ft 509 kts 92°
2026-05-03 20:33 65.65783 -35.27754 41066 ft 509 kts 92°
2026-05-03 20:34 65.65345 -35.10631 41073 ft 509 kts 92°
2026-05-03 20:34 65.64887 -34.93530 41066 ft 509 kts 92°
2026-05-03 20:35 65.64410 -34.76433 41068 ft 509 kts 92°
2026-05-03 20:35 65.63913 -34.59302 41067 ft 509 kts 92°
2026-05-03 20:36 65.63397 -34.42207 41046 ft 509 kts 93°
2026-05-03 20:36 65.62860 -34.25050 41060 ft 511 kts 93°
2026-05-03 20:37 65.62304 -34.07909 41069 ft 511 kts 93°
2026-05-03 20:37 65.61729 -33.90773 41077 ft 511 kts 93°
2026-05-03 20:38 65.61135 -33.73663 41063 ft 509 kts 94°
2026-05-03 20:38 65.60518 -33.56458 41064 ft 510 kts 94°
2026-05-03 20:39 65.59876 -33.39130 41067 ft 510 kts 94°
2026-05-03 20:39 65.59224 -33.22018 41067 ft 510 kts 94°
2026-05-03 20:40 65.58549 -33.04846 41061 ft 510 kts 94°
2026-05-03 20:40 65.57844 -32.87424 41098 ft 511 kts 94°
2026-05-03 20:41 65.57254 -32.73227 41072 ft 509 kts 94°
2026-05-03 20:41 65.56534 -32.56279 41081 ft 509 kts 95°
2026-05-03 20:42 65.55790 -32.39281 41081 ft 509 kts 95°
2026-05-03 20:42 65.55028 -32.22287 41086 ft 509 kts 95°
2026-05-03 20:43 65.54248 -32.05321 41085 ft 509 kts 95°
2026-05-03 20:43 65.53450 -31.88397 41086 ft 509 kts 95°
2026-05-03 20:44 65.52632 -31.71439 41088 ft 509 kts 95°
2026-05-03 20:44 65.51787 -31.54368 41089 ft 509 kts 95°
2026-05-03 20:45 65.50929 -31.37407 41086 ft 509 kts 96°
2026-05-03 20:45 65.50054 -31.20479 41086 ft 509 kts 96°
2026-05-03 20:46 65.49160 -31.03584 41084 ft 509 kts 96°
2026-05-03 20:46 65.48245 -30.86642 41086 ft 509 kts 96°
2026-05-03 20:47 65.47313 -30.69757 41113 ft 510 kts 96°
2026-05-03 20:47 65.46350 -30.52660 41087 ft 512 kts 96°
2026-05-03 20:48 65.45369 -30.35605 41082 ft 511 kts 96°
2026-05-03 20:48 65.44378 -30.18720 41088 ft 511 kts 97°
2026-05-03 20:49 65.43378 -30.02002 41085 ft 511 kts 97°
2026-05-03 20:49 65.42356 -29.85242 41086 ft 511 kts 97°
2026-05-03 20:50 65.41308 -29.68371 41118 ft 511 kts 97°
2026-05-03 20:50 65.40238 -29.51469 41083 ft 513 kts 97°
2026-05-03 20:51 65.39144 -29.34509 41083 ft 514 kts 97°
2026-05-03 20:51 65.38032 -29.17577 41074 ft 514 kts 98°
2026-05-03 20:52 65.36903 -29.00673 41076 ft 512 kts 98°
2026-05-03 20:52 65.35759 -28.83856 41080 ft 512 kts 98°
2026-05-03 20:53 65.34595 -28.67024 41077 ft 512 kts 98°
2026-05-03 20:53 65.33401 -28.50056 41076 ft 514 kts 98°
2026-05-03 20:54 65.32193 -28.33171 41072 ft 515 kts 98°
2026-05-03 20:54 65.30352 -28.07949 41073 ft 515 kts 99°
2026-05-03 20:55 65.29077 -27.90843 41067 ft 515 kts 99°
2026-05-03 20:55 65.27804 -27.74023 41067 ft 515 kts 99°
2026-05-03 20:56 65.26510 -27.57194 41092 ft 515 kts 99°
2026-05-03 20:56 65.25204 -27.40464 41054 ft 515 kts 99°
2026-05-03 20:57 65.23873 -27.23677 41063 ft 515 kts 99°
2026-05-03 20:57 65.22514 -27.06781 41056 ft 515 kts 99°
2026-05-03 20:58 65.21154 -26.90132 41058 ft 515 kts 100°
2026-05-03 20:58 65.19764 -26.73358 41052 ft 515 kts 100°
2026-05-03 20:59 65.18358 -26.56640 41032 ft 515 kts 100°
2026-05-03 20:59 65.17448 -26.48419 41027 ft 515 kts 112°
2026-05-03 20:59 65.15927 -26.40756 41061 ft 514 kts 115°
2026-05-03 21:00 65.14039 -26.30268 41044 ft 514 kts 119°
2026-05-03 21:00 65.08743 -26.11463 41043 ft 514 kts 127°
2026-05-03 21:01 65.04534 -25.97804 41043 ft 513 kts 128°
2026-05-03 21:01 65.00271 -25.84234 41042 ft 513 kts 128°
2026-05-03 21:02 64.96019 -25.70793 41036 ft 512 kts 128°
2026-05-03 21:02 64.91738 -25.57340 41041 ft 512 kts 128°
2026-05-03 21:03 64.87437 -25.43905 41039 ft 512 kts 128°
2026-05-03 21:03 64.83173 -25.30663 40558 ft 507 kts 128°
2026-05-03 21:04 64.81018 -25.24001 39444 ft 518 kts 128°
2026-05-03 21:04 64.78858 -25.17343 39014 ft 508 kts 128°
2026-05-03 21:04 64.76728 -25.10802 37914 ft 504 kts 129°
2026-05-03 21:04 64.75306 -25.06445 37043 ft 505 kts 129°
2026-05-03 21:05 64.73167 -24.99906 35638 ft 510 kts 130°
2026-05-03 21:05 64.70992 -24.93274 34130 ft 519 kts 131°
2026-05-03 21:05 64.68774 -24.86534 32410 ft 528 kts 132°
2026-05-03 21:05 64.66527 -24.79717 31081 ft 529 kts 132°
2026-05-03 21:06 64.64248 -24.72834 30185 ft 540 kts 132°
2026-05-03 21:06 64.61941 -24.65877 28802 ft 546 kts 132°
2026-05-03 21:06 64.59606 -24.58855 27263 ft 553 kts 131°
2026-05-03 21:06 64.57236 -24.51731 26145 ft 553 kts 130°
2026-05-03 21:07 64.55138 -24.44269 25056 ft 554 kts 123°
2026-05-03 21:07 64.53181 -24.36648 24084 ft 549 kts 122°
2026-05-03 21:07 64.51245 -24.29047 22988 ft 545 kts 122°
2026-05-03 21:07 64.49347 -24.21588 21843 ft 542 kts 122°
2026-05-03 21:08 64.47415 -24.14016 20844 ft 533 kts 122°
2026-05-03 21:08 64.45573 -24.06821 19790 ft 520 kts 122°
2026-05-03 21:08 64.43757 -23.99750 18460 ft 503 kts 122°
2026-05-03 21:08 64.41955 -23.92758 16772 ft 496 kts 122°
2026-05-03 21:09 64.40180 -23.85888 15624 ft 496 kts 122°
2026-05-03 21:09 64.38420 -23.79099 14690 ft 488 kts 122°
2026-05-03 21:09 64.36690 -23.72451 13971 ft 477 kts 122°
2026-05-03 21:09 64.35022 -23.66051 13351 ft 454 kts 122°
2026-05-03 21:10 64.33420 -23.59931 12788 ft 441 kts 122°
2026-05-03 21:10 64.31844 -23.53918 12115 ft 433 kts 122°
2026-05-03 21:10 64.30310 -23.48085 11790 ft 417 kts 122°
2026-05-03 21:10 64.28952 -23.42927 11605 ft 402 kts 122°
2026-05-03 21:11 64.27350 -23.37829 11325 ft 386 kts 137°
2026-05-03 21:11 64.25222 -23.34335 11079 ft 367 kts 157°
2026-05-03 21:11 64.23010 -23.31860 10921 ft 352 kts 159°
2026-05-03 21:11 64.20836 -23.29466 10738 ft 340 kts 159°
2026-05-03 21:12 64.18732 -23.27186 10546 ft 330 kts 159°
2026-05-03 21:12 64.16679 -23.24983 10360 ft 320 kts 160°
2026-05-03 21:12 64.14687 -23.22856 10190 ft 311 kts 160°
2026-05-03 21:12 64.12754 -23.20797 9991 ft 303 kts 160°
2026-05-03 21:13 64.10845 -23.18768 9631 ft 302 kts 159°
2026-05-03 21:13 64.08939 -23.16745 9232 ft 301 kts 159°
2026-05-03 21:13 64.07044 -23.14739 8846 ft 300 kts 159°
2026-05-03 21:13 64.05152 -23.12739 8515 ft 297 kts 159°
2026-05-03 21:14 64.03304 -23.10788 8181 ft 294 kts 159°
2026-05-03 21:14 64.01427 -23.08809 7844 ft 292 kts 158°
2026-05-03 21:14 63.99613 -23.06900 7511 ft 290 kts 158°
2026-05-03 21:14 63.97790 -23.04983 7165 ft 288 kts 158°
2026-05-03 21:15 63.95982 -23.03086 6836 ft 286 kts 158°
2026-05-03 21:15 63.94184 -23.01200 6505 ft 283 kts 158°
2026-05-03 21:15 63.92396 -22.99329 6160 ft 281 kts 157°
2026-05-03 21:15 63.90623 -22.97478 5813 ft 279 kts 157°
2026-05-03 21:16 63.88863 -22.95641 5473 ft 277 kts 156°
2026-05-03 21:16 63.87111 -22.93813 5151 ft 275 kts 156°
2026-05-03 21:16 63.85380 -22.92013 4853 ft 272 kts 156°
2026-05-03 21:16 63.83682 -22.90246 4700 ft 263 kts 156°
2026-05-03 21:17 63.82083 -22.88588 4574 ft 243 kts 156°
2026-05-03 21:17 63.81086 -22.87553 4496 ft 232 kts 156°
2026-05-03 21:17 63.79211 -22.85605 4321 ft 211 kts 155°
2026-05-03 21:17 63.78134 -22.83634 4158 ft 200 kts 121°
2026-05-03 21:18 63.77691 -22.80680 4081 ft 195 kts 88°
2026-05-03 21:18 63.77873 -22.77729 3996 ft 191 kts 69°
2026-05-03 21:18 63.78261 -22.74818 3938 ft 197 kts 67°
2026-05-03 21:18 63.78685 -22.71835 3840 ft 200 kts 66°
2026-05-03 21:19 63.79126 -22.68889 3720 ft 200 kts 66°
2026-05-03 21:19 63.79579 -22.65932 3569 ft 199 kts 65°
2026-05-03 21:19 63.80078 -22.63056 3373 ft 196 kts 53°
2026-05-03 21:19 63.81059 -22.61203 3172 ft 179 kts 15°
2026-05-03 21:20 63.82205 -22.60731 3010 ft 158 kts
2026-05-03 21:20 63.82559 -22.60681 2949 ft 148 kts 359°
2026-05-03 21:20 63.82627 -22.60673 2937 ft 146 kts 358°
2026-05-03 21:20 63.83459 -22.60605 2817 ft 143 kts 358°
2026-05-03 21:21 63.84386 -22.60568 2641 ft 126 kts 356°
2026-05-03 21:21 63.85212 -22.60553 2472 ft 113 kts 358°
2026-05-03 21:21 63.85981 -22.60545 2309 ft 108 kts 357°
2026-05-03 21:21 63.86729 -22.60543 2158 ft 107 kts 356°
2026-05-03 21:22 63.87463 -22.60539 1998 ft 105 kts 356°
2026-05-03 21:22 63.88195 -22.60538 1874 ft 105 kts 355°
2026-05-03 21:22 63.88919 -22.60537 1723 ft 104 kts 356°
2026-05-03 21:22 63.89643 -22.60538 1580 ft 103 kts 356°
2026-05-03 21:23 63.90364 -22.60539 1422 ft 104 kts 355°
2026-05-03 21:23 63.91088 -22.60504 1307 ft 104 kts 355°
2026-05-03 21:23 63.91814 -22.60502 1131 ft 104 kts 354°
2026-05-03 21:23 63.92542 -22.60521 953 ft 105 kts 354°
2026-05-03 21:24 63.93272 -22.60547 837 ft 106 kts 356°
2026-05-03 21:24 63.94019 -22.60543 679 ft 107 kts 357°
2026-05-03 21:24 63.94778 -22.60529 524 ft 110 kts 358°
2026-05-03 21:24 63.95541 -22.60529 360 ft 109 kts 357°
2026-05-03 21:25 63.96267 -22.60532 238 ft 101 kts 357°
2026-05-03 21:25 63.96905 -22.60540 163 ft 93 kts 357°
2026-05-03 21:25 63.97321 -22.60543 172 ft 45 kts 360°
2026-05-03 21:25 63.97662 -22.60544 175 ft 53 kts
2026-05-03 21:26 63.98017 -22.60563 174 ft 44 kts 349°
2026-05-03 21:26 63.98228 -22.60760 170 ft 16 kts 330°
2026-05-03 21:26 63.98335 -22.60898 169 ft 13 kts 329°
2026-05-03 21:26 63.98394 -22.60939 168 ft 2 kts 359°
2026-05-03 21:27 63.98395 -22.60939 168 ft 0 kts 359°
2026-05-03 21:28 63.98561 -22.60944 171 ft 27 kts 359°
2026-05-03 21:29 63.98765 -22.60939 168 ft 31 kts 360°
2026-05-03 21:29 63.98979 -22.60937 173 ft 31 kts
2026-05-03 21:29 63.99153 -22.60959 166 ft 17 kts 324°
2026-05-03 21:29 63.99173 -22.61240 159 ft 21 kts 270°
2026-05-03 21:30 63.99174 -22.61642 150 ft 30 kts 270°
2026-05-03 21:30 63.99172 -22.62171 145 ft 37 kts 270°
2026-05-03 21:30 63.99173 -22.62640 145 ft 16 kts 276°
2026-05-03 21:30 63.99193 -22.62679 145 ft 9 kts 354°
2026-05-03 21:31 63.99241 -22.62685 145 ft 2 kts 326°
2026-05-03 21:31 63.99280 -22.62753 145 ft 6 kts 312°
2026-05-03 21:31 63.99284 -22.62868 145 ft 7 kts 268°
2026-05-03 21:31 63.99283 -22.62908 145 ft 0 kts 268°